Regional Weather Roundup
Issued by NWS

Home | Current Version | Previous Version | Text Only | Print | Product List | Glossary Off
Versions: 1 2 3 4 5 6 7 8 9 10 11 12 13 14 15 16 17 18 19 20 21 22 23 24 25 26 27 28 29 30 31 32 33 34 35 36 37 38 39 40 41 42 43 44 45 46 47 48 49 50

000
ASUS43 KMKX 190010
RWRWI

WISCONSIN REGIONAL WEATHER ROUNDUP
NATIONAL WEATHER SERVICE MILWAUKEE/SULLIVAN WI
600 PM CST WED JAN 18 2017

NOTE: "FAIR" INDICATES FEW OR NO CLOUDS BELOW 12,000 FEET WITH NO
SIGNIFICANT WEATHER AND/OR OBSTRUCTIONS TO VISIBILITY.

WIZ001-002-006>008-014>016-023>028-190100-
NORTHWEST WISCONSIN

CITY           SKY/WX    TMP DP  RH WIND       PRES   REMARKS
SUPERIOR ARPT  CLOUDY    35  27  71 SW6       29.82S WCI  30
6HR MIN TEMP:  34; 6HR MAX TEMP:  42;

ASHLAND        CLOUDY    38  28  67 SW13      29.83R WCI  30
6HR MIN TEMP:  38; 6HR MAX TEMP:  44;

HAYWARD        CLOUDY    34  27  75 S5        29.85R WCI  30
6HR MIN TEMP:  34; 6HR MAX TEMP:  40;

SIREN          CLEAR     35  29  79 S3        29.85S
6HR MIN TEMP:  35; 6HR MAX TEMP:  41; 6HR PCP:  0.03;

CUMBERLAND     CLEAR     30  28  93 S6        29.86R WCI  24
RICE LAKE      CLEAR     32  29  89 S7        29.88S WCI  26
6HR MIN TEMP:  32; 6HR MAX TEMP:  39;

CHETEK         NOT AVBL
LADYSMITH      CLEAR     34  30  83 S5        29.88S WCI  30
6HR MIN TEMP:  34; 6HR MAX TEMP:  40;

EAU CLAIRE     CLEAR     34  30  85 S6        29.89R WCI  29
6HR MIN TEMP:  34; 6HR MAX TEMP:  39;

MENOMONIE      CLEAR     35  31  86 MISG      29.89R
6HR MIN TEMP:  35; 6HR MAX TEMP:  39;

NEW RICHMOND   CLEAR     33  29  87 S6        29.87S WCI  27
6HR MIN TEMP:  33; 6HR MAX TEMP:  38; 6HR PCP:  0.19;

OSCEOLA        CLEAR     35  31  87 S8        29.89R WCI  28
6HR MIN TEMP:  34; 6HR MAX TEMP:  40;

$$

WIZ003>005-009-010-017-018-190100-
NORTH CENTRAL WISCONSIN

CITY           SKY/WX    TMP DP  RH WIND       PRES   REMARKS
MANITOWISH WTR CLOUDY    36  28  74 SW8       29.83R WCI  29
ARBOR VITAE    CLOUDY    37  29  71 SW6       29.84S WCI  32
6HR MIN TEMP:  37; 6HR MAX TEMP:  44;

WOODRUFF       CLOUDY    37  29  71 SW6       29.84S WCI  32
6HR MIN TEMP:  37; 6HR MAX TEMP:  44;

RHINELANDER    CLOUDY    36  30  79 SW8       29.85S WCI  30
6HR MIN TEMP:  35; 6HR MAX TEMP:  41;

EAGLE RIVER    CLOUDY    35  28  73 SW6       29.83R WCI  30
6HR MIN TEMP:  35; 6HR MAX TEMP:  43;

LAND O LAKES   CLOUDY    38  27  64 SW5       29.83R WCI  35
6HR MIN TEMP:  38; 6HR MAX TEMP:  47;

PHILLIPS       CLEAR     31  28  86 CALM      29.85S
6HR MIN TEMP:  31; 6HR MAX TEMP:  38;

TOMAHAWK       CLEAR     31  27  87 CALM      29.87R
6HR MIN TEMP:  31; 6HR MAX TEMP:  40;

MEDFORD        CLEAR     33  29  85 SW3       29.87S
6HR MIN TEMP:  31; 6HR MAX TEMP:  37;

MERRILL        CLEAR     32  30  92 CALM        N/A
6HR MIN TEMP:  32; 6HR MAX TEMP:  39;

$$

WIZ029-030-035-036-043>047-190100-
CENTRAL WISCONSIN

CITY           SKY/WX    TMP DP  RH WIND       PRES   REMARKS
WAUSAU         CLEAR     35  30  82 SW5       29.88R WCI  31
6HR MIN TEMP:  33; 6HR MAX TEMP:  39;

MOSINEE        CLEAR     34  30  86 SW6       29.90R WCI  29
MARSHFIELD     CLEAR     35  29  78 SW7       29.89R WCI  29
6HR MIN TEMP:  35; 6HR MAX TEMP:  41;

STEVENS POINT  CLEAR     34  29  83 SW8       29.91S WCI  27
6HR MIN TEMP:  32; 6HR MAX TEMP:  39;

WAUPACA        CLEAR     37  31  77 CALM      29.93R
6HR MIN TEMP:  37; 6HR MAX TEMP:  44;

WAUTOMA        CLEAR     35  30  82 S10       29.94F WCI  27
6HR MIN TEMP:  35; 6HR MAX TEMP:  41;

WISC RAPIDS    CLEAR     34  30  85 SW9       29.93R WCI  27
6HR MIN TEMP:  33; 6HR MAX TEMP:  41;

CAMP DOUGLAS   PTCLDY    36  30  80 S7        29.94R WCI  30
$$

WIZ011>013-019>022-031-037>040-048>050-190100-
NORTHEAST WISCONSIN

CITY           SKY/WX    TMP DP  RH WIND       PRES   REMARKS
ANTIGO         CLEAR     32  29  90 SW5       29.87S WCI  27
6HR MIN TEMP:  31; 6HR MAX TEMP:  36;

SHAWANO        CLEAR     39  32  76 SW5       29.90S
6HR MIN TEMP:  38; 6HR MAX TEMP:  42;

OCONTO         CLEAR     34  31  88 SW6       29.90S WCI  29
STURGEON BAY   CLEAR     33  30  88 SW8       29.91R WCI  26
6HR MIN TEMP:  33; 6HR MAX TEMP:  37;

GREEN BAY      CLEAR     35  32  88 SW9       29.92R WCI  28
6HR MIN TEMP:  35; 6HR MAX TEMP:  37;

MANITOWOC      CLEAR     36  30  79 SW8       29.94R WCI  30
6HR MIN TEMP:  36; 6HR MAX TEMP:  40;

APPLETON       CLEAR     34  32  93 SW14      29.92R WCI  24
CLINTONVILLE   CLEAR     36  30  80 SW8       29.91R WCI  29
OSHKOSH        CLEAR     33  29  85 SW13      29.93F WCI  24
6HR MIN TEMP:  33; 6HR MAX TEMP:  35;

$$

WIZ032>034-041-042-053>061-190100-
SOUTHWEST WISCONSIN

CITY           SKY/WX    TMP DP  RH WIND       PRES   REMARKS
LA CROSSE      CLOUDY    36  30  79 S13       29.96S WCI  27
6HR MIN TEMP:  35; 6HR MAX TEMP:  38;

SPARTA         CLOUDY    33  31  91 S6        29.96S WCI  27
6HR MIN TEMP:  32; 6HR MAX TEMP:  39; 6HR PCP:  0.01;

VIROQUA        CLOUDY    32  31  96 S10       29.96R WCI  23
6HR MIN TEMP:  31; 6HR MAX TEMP:  34;

BOSCOBEL       CLOUDY    34  31  88 S8        30.02S WCI  27
6HR MIN TEMP:  34; 6HR MAX TEMP:  36;

PRAIRIE DU CHI CLOUDY    34  30  87 S5        30.02R WCI  29
6HR MIN TEMP:  33; 6HR MAX TEMP:  35;

PLATTEVILLE    CLOUDY    33  33 100 S10       30.03R WCI  24
6HR MIN TEMP:  32; 6HR MAX TEMP:  36;

$$

WIZ056-057-062-063-064-067-068-190100-
SOUTH CENTRAL WISCONSIN

CITY           SKY/WX    TMP DP  RH WIND       PRES   REMARKS
REEDSBURG      CLOUDY    32  31  98 S5        29.97S WCI  27
6HR MIN TEMP:  32; 6HR MAX TEMP:  36;

BARABOO/DELLS  CLOUDY    32  30  92 S8        29.96F WCI  25
6HR MIN TEMP:  32; 6HR MAX TEMP:  37;

LONE ROCK      CLOUDY    33  29  85 SW5       30.01R FOG     WCI  29
6HR MIN TEMP:  32; 6HR MAX TEMP:  36;

MINERAL POINT  CLOUDY    34  34 100 SW13      30.00R FOG     WCI  25
MADISON        CLOUDY    33  30  88 S10       30.00F WCI  25
6HR MIN TEMP:  33; 6HR MAX TEMP:  35;

MIDDLETON      CLOUDY    33  33 100 S6        30.00F WCI  28
6HR MIN TEMP:  33; 6HR MAX TEMP:  37;

WATERTOWN      CLOUDY    32  32 100 SW13      30.01S WCI  22
6HR MIN TEMP:  32; 6HR MAX TEMP:  35;

MONROE         CLOUDY    32  32 100 S12       30.01R FOG     WCI  23
JANESVILLE     CLOUDY    36  36 100 SW8       30.04R WCI  29
$$

WIZ051-052-058>065-066-070>072-190100-
SOUTHEAST WISCONSIN

CITY           SKY/WX    TMP DP  RH WIND       PRES   REMARKS
MILWAUKEE      CLOUDY    34  30  85 SW15G22   30.02R WCI  24
6HR MIN TEMP:  34; 6HR MAX TEMP:  39;

WAUKESHA       CLOUDY    30  28  93 SW10G18   30.02R WCI  21
MILWAUKEE/TIMM MOCLDY    32  28  86 SW15G21   30.02R WCI  22
RACINE         CLOUDY    33  29  85 SW14G21   30.05R WCI  23
6HR MIN TEMP:  33; 6HR MAX TEMP:  36;

KENOSHA        CLOUDY    34  31  88 SW13      30.04S WCI  25
6HR MIN TEMP:  33; 6HR MAX TEMP:  36;

FOND DU LAC    CLEAR     33  29  85 SW15G23   29.95F WCI  23
6HR MIN TEMP:  33; 6HR MAX TEMP:  36;

SHEBOYGAN      CLEAR     34  29  82 SW13      29.95F WCI  25
6HR MIN TEMP:  34; 6HR MAX TEMP:  39;

WEST BEND      CLOUDY    32  32 100 SW7       29.99R WCI  26
JUNEAU         CLOUDY    32  30  94 S14       30.01S FOG     WCI  22
6HR MIN TEMP:  32; 6HR MAX TEMP:  34;

$$

LSZ147-162-190100-
LAKE SUPERIOR

STATION/POSITION TIME  TEMP    WIND        PRES    WAVE
                       AIR SEA DIR/SP/G            HT/PER
                 (UTC) (F)     (DEG/KT/KT) (MB)    (FT/S)
DEVILS ISLAND    0000   36     220/ 11/ 13 1010.1R
PORT WING        2330   39     200/  5/  6 1009.8R
SAXON HARBOR     2340   42     200/  9/ 12 1009.5R
$$

LMZ867-665-643>646-190100-
LAKE MICHIGAN

STATION/POSITION TIME  TEMP    WIND        PRES    WAVE
                       AIR SEA DIR/SP/G            HT/PER
                 (UTC) (F)     (DEG/KT/KT) (MB)    (FT/S)
NORTHPORT PIER   2340   35     210/  1/  9 1012.2R
SISTER BAY       2250   36     210/ 14/ 17   N/A
KEWAUNEE LAKESHO 2348   36     230/  4/  7 1012.8R
SHEBOYGAN LAKESH 0000   35     220/ 12/ 14 1014.7F
PORT WASHINGTON  2340   34     230/  5/  9 1016.6R
MILWAUKEE LAKESH 2350   34     230/ 13/ 16   N/A
KENOSHA   LAKESH 0000



USA.gov is the U.S. government's official web portal to all federal, state and local government web resources and services.